Flag for Germany Weather past 2 weeks in Wetzlar, Hesse, Germany

Now
33 °F

Overcast.


Feels Like: 33 °F
Forecast: 33 / 47 °F
Wind: 2 mph from West

Location: Giessen

Current Time: Feb 28, 2015 at 10:47:15 PM

Latest Report: Feb 28, 2015 at 10:00 PM


Visibility: 14 mi

Pressure: 30.00 "Hg

Humidity: 81%

Dew point: 27 °F

Location of WetzlarLocation

Historic Weather in Wetzlar — Graph

°F

Wetzlar temperature yesterday

Maximum temperature yesterday: 42 °F (at 12:00 AM)
Minimum temperature yesterday: 36 °F (at 11:00 AM)
Average temperature yesterday: 39 °F

Past Weeks' High & Low Weather Summary

 TemperatureHumidityPressure
High49 °F (Feb 20, 9:00 PM)100% (Feb 15, 3:00 AM)30.77 "Hg (Feb 15, 3:00 AM)
Low25 °F (Feb 15, 6:00 AM)52% (Feb 28, 5:00 PM)29.41 "Hg (Feb 21, 7:00 AM)
Average36 °F86%30.03 "Hg
* Reported Feb 13 9:00 PM — Feb 28 9:00 PM, Wetzlar, Weather by CustomWeather, © 2015

Note: Actual official high and low records may vary slightly from our data, if they occured in-between our weather recording intervals... More about our weather records

Advertising

Wetzlar weather history for previous 24 hours

 ConditionsComfort  
Time TempWeatherWind HumidityBarometerVisibility
9:00 PM
Sat, Feb 28
35 °FPassing clouds.2 mph84%30.02 "Hg14 mi
8:00 PM38 °FOvercast.5 mph69%30.02 "Hg18 mi
7:00 PM39 °FClear.3 mph64%30.04 "Hg25 mi
6:00 PM42 °FPassing clouds.5 mph56%30.04 "Hg34 mi
5:00 PM44 °FSunny.6 mph52%30.05 "Hg28 mi
4:00 PM45 °FScattered clouds.6 mph53%30.07 "Hg19 mi
3:00 PM45 °FOvercast.1 mph61%30.09 "Hg18 mi
2:00 PM42 °FOvercast.2 mph67%30.12 "Hg11 mi
1:00 PM39 °FSunny.2 mph83%30.14 "Hg5 mi
12:00 PM36 °FFog.2 mph92%30.18 "Hg3 mi
11:00 AM32 °FFog.3 mph99%30.20 "Hg3 mi
10:00 AM31 °FLow clouds.5 mph100%30.21 "Hg2 mi
9:00 AM30 °FLow clouds.6 mph100%30.21 "Hg1 mi
8:00 AM29 °FFog.2 mph99%30.20 "Hg3 mi
7:00 AM29 °FFog.3 mph100%30.19 "Hg3 mi
6:00 AM30 °FFog.2 mph98%30.19 "Hg4 mi
5:00 AM31 °FClear.3 mph98%30.19 "Hg11 mi
4:00 AM31 °FClear.3 mph97%30.18 "Hg10 mi
3:00 AM33 °FClear.5 mph95%30.17 "Hg10 mi
2:00 AM32 °FPassing clouds.2 mph96%30.17 "Hg7 mi
1:00 AM34 °FOvercast.2 mph95%30.17 "Hg10 mi
12:00 AM37 °FOvercast.2 mph91%30.16 "Hg13 mi
11:00 PM
Fri, Feb 27
37 °FOvercast.1 mph93%30.14 "Hg11 mi
10:00 PM37 °FOvercast.2 mph95%30.14 "Hg11 mi
Weather by CustomWeather, © 2015

See weather overviewHow to use our weather pages